SCOUT X-4 R/B, 721

Orbit data source: Space-Track

SCOUT X-4 R/B, 721 is space debris in LEO originally from a launch on Thu, 19 Dec 1963 UTC launched from the Air Force Western Test Range (AFWTR). Debris objects in space refer to the collection of defunct objects orbiting the Earth. Examples of debris include non-operational satellites, rocket bodies, and fragments generated from explosions, collisions, or faulty payload assembly.

Loading next visibility...
Identifier
721, 1963-053B
Orbit
LEO
Country
Flag of USUS
Related business
Manufacturer
ABL
Mission
Spacecraft
Bus & Motor
ALTAIR, Unknown motor
Mass
68 kg wet, 33 kg dry
Launch date (UTC)
1963-12-19 (62 years ago)
Launch vehicle
Unknown
Launch site
Air Force Western Test Range (AFWTR)
Object type
Payload
Rocket body
Debris
Shape & HBR
Unknown
Radar Cross Section
Medium (>0.1 m² and <1 m²)

Expand to show TLE details & history
Last TLE update: 12 hours ago

TLE from 12 hours ago
0 SCOUT X-4 R/B
1   721U 63053B   26036.96249190  .00000203  00000-0  12259-3 0  9991
2   721  78.5983 240.3246 1088006 310.2776  40.7969 12.55043290833596
Epoch: 2026-02-05T23:05Z
TLE epoch observation values (Epoch: 2026-02-05T23:05:59.300Z)
Latitude
0.00001°
Longitude
117.72033°
Altitude
846.645 km
Speed
7.709 km/s
True Right ascension
16h 01m 17s
True Declination
0° 00' 00"
Sunlit
Object was in daylight at epoch
Visualization orbit readout
Latitude
Unknown
Longitude
Unknown
Altitude
Unknown
Speed
Unknown
Apparent Right ascension
Unknown
Apparent Declination
Unknown
Sunlit
N/A
Visualization observer readout
Local Sidereal Time
13:29:04
Azimuth
Unknown
Elevation
Unknown
Doppler factor
Unknown
Orbital elements
Apogee altitude
2,291.667 km
Perigee altitude
590.225 km
Semi-major axis
7,819.083 km
Eccentricity
0.1088
Inclination
78.5983°
RAAN
240.3246°
Arg. of periapsis
310.2776°
True anomaly
49.83499°
Mean anomaly
40.7969°
Eccentric anomaly
45.22191°
Mean motion
3.13913 °/min
Orbital period
114.68 mins
BSTAR
0.00012259
Loading maneuver chart data...
Computing Atmospheric mass density...
Loading historical data...
Loading historical data...
Loading historical data...
Loading historical data...
Loading historical data...
Loading historical data...
Loading historical data...

Documentation

Showing up to 5 results
|